Terminal Aerodrome Forecast
Issued by NWS Louisville, KY

Home | Current Version | Previous Version | Text Only | Print | Product List | Glossary On
Versions: 1 2 3 4 5 6 7 8 9 10 11 12 13
000
FTUS43 KLMK 262300
TAFLEX
TAF
KLEX 262328Z 2700/2724 08004KT P6SM SCT040
     FM270700 VRB03KT P6SM FEW250
     FM271600 01005KT P6SM SCT050=

USA.gov is the U.S. government's official web portal to all federal, state and local government web resources and services.